TimeEST,TemperatureF,Dew PointF,Humidity,Sea Level PressureIn,VisibilityMPH,Wind Direction,Wind SpeedMPH,Gust SpeedMPH,PrecipitationIn,Events,Conditions,WindDirDegrees,DateUTC
12:53 AM,43.0,39.0,86,29.85,5.0,Calm,Calm,-,0.04,Rain,Rain,0,2013-02-13 05:53:00
1:53 AM,42.1,39.9,92,29.83,3.0,Calm,Calm,-,0.15,Rain,Rain,0,2013-02-13 06:53:00
2:53 AM,42.1,39.9,92,29.81,10.0,NW,3.5,-,0.01,,Overcast,320,2013-02-13 07:53:00
3:53 AM,42.1,39.9,92,29.81,7.0,West,4.6,-,0.01,Rain,Light Rain,270,2013-02-13 08:53:00
4:22 AM,42.8,39.2,87,29.82,10.0,Calm,Calm,-,0.00,,Overcast,0,2013-02-13 09:22:00
4:53 AM,42.1,39.9,92,29.79,10.0,Calm,Calm,-,0.00,,Overcast,0,2013-02-13 09:53:00
5:51 AM,42.8,39.2,87,29.80,4.0,Calm,Calm,-,N/A,,Overcast,0,2013-02-13 10:51:00
5:53 AM,42.1,39.9,92,29.78,4.0,NNW,3.5,-,N/A,,Overcast,330,2013-02-13 10:53:00
6:10 AM,42.8,39.2,87,29.80,3.0,Calm,Calm,-,0.01,Rain,Light Rain,0,2013-02-13 11:10:00
6:25 AM,42.8,39.2,87,29.80,4.0,Calm,Calm,-,0.01,,Overcast,0,2013-02-13 11:25:00
6:53 AM,42.1,39.9,92,29.76,3.0,Calm,Calm,-,0.01,,Overcast,0,2013-02-13 11:53:00
7:06 AM,42.8,39.2,87,29.78,2.0,Calm,Calm,-,N/A,,Overcast,0,2013-02-13 12:06:00
7:18 AM,42.8,39.2,87,29.78,1.5,Calm,Calm,-,N/A,,Overcast,0,2013-02-13 12:18:00
7:53 AM,42.1,39.9,92,29.77,1.5,Calm,Calm,-,N/A,,Overcast,0,2013-02-13 12:53:00
8:53 AM,42.1,39.9,92,29.74,1.5,East,3.5,-,0.02,,Overcast,80,2013-02-13 13:53:00
9:00 AM,42.8,39.2,87,29.77,2.0,East,3.5,-,N/A,,Overcast,80,2013-02-13 14:00:00
9:11 AM,42.8,39.2,87,29.77,3.0,ENE,3.5,-,N/A,,Overcast,60,2013-02-13 14:11:00
9:18 AM,42.8,39.2,87,29.77,2.0,ENE,3.5,-,N/A,,Overcast,60,2013-02-13 14:18:00
9:53 AM,43.0,41.0,93,29.75,2.0,Calm,Calm,-,N/A,,Overcast,0,2013-02-13 14:53:00
10:02 AM,42.8,41.0,93,29.77,1.5,Calm,Calm,-,0.00,Rain,Light Rain,0,2013-02-13 15:02:00
10:43 AM,42.8,41.0,93,29.77,2.5,Calm,Calm,-,0.01,,Overcast,0,2013-02-13 15:43:00
10:53 AM,43.0,41.0,93,29.72,2.0,Calm,Calm,-,0.01,,Overcast,0,2013-02-13 15:53:00
10:56 AM,42.8,41.0,93,29.75,2.0,Calm,Calm,-,N/A,,Overcast,0,2013-02-13 15:56:00
11:53 AM,43.0,41.0,93,29.69,1.8,Calm,Calm,-,N/A,,Overcast,0,2013-02-13 16:53:00
12:33 PM,42.8,41.0,93,29.69,1.2,Calm,Calm,-,0.01,Rain,Light Rain,0,2013-02-13 17:33:00
12:53 PM,43.0,42.1,97,29.67,1.5,Calm,Calm,-,0.01,,Overcast,0,2013-02-13 17:53:00
1:01 PM,44.6,42.8,93,29.67,1.5,Calm,Calm,-,N/A,,Overcast,0,2013-02-13 18:01:00
1:10 PM,44.6,42.8,93,29.67,1.5,Calm,Calm,-,N/A,,Overcast,0,2013-02-13 18:10:00
1:26 PM,44.6,42.8,93,29.66,3.0,SSW,3.5,-,N/A,,Overcast,200,2013-02-13 18:26:00
1:39 PM,44.6,41.0,87,29.65,10.0,Calm,Calm,-,N/A,,Overcast,0,2013-02-13 18:39:00
1:51 PM,44.6,41.0,87,29.66,10.0,SSW,4.6,-,0.01,,Overcast,200,2013-02-13 18:51:00
1:53 PM,44.1,41.0,89,29.64,3.0,SSW,4.6,-,0.01,,Overcast,210,2013-02-13 18:53:00
2:53 PM,45.0,42.1,90,29.62,3.0,South,5.8,-,N/A,,Overcast,190,2013-02-13 19:53:00
3:53 PM,45.0,42.1,90,29.63,5.0,SSW,5.8,-,N/A,,Overcast,210,2013-02-13 20:53:00
4:53 PM,46.0,43.0,89,29.65,10.0,South,6.9,-,0.00,,Overcast,190,2013-02-13 21:53:00
5:35 PM,46.4,42.8,87,29.67,10.0,SW,5.8,-,N/A,,Overcast,230,2013-02-13 22:35:00
5:53 PM,45.0,42.1,90,29.66,10.0,SSW,6.9,-,N/A,,Mostly Cloudy,210,2013-02-13 22:53:00
6:05 PM,44.6,42.8,93,29.69,10.0,SSW,4.6,-,N/A,,Mostly Cloudy,210,2013-02-13 23:05:00
6:12 PM,44.6,42.8,93,29.70,10.0,SW,5.8,-,N/A,,Partly Cloudy,220,2013-02-13 23:12:00
6:53 PM,43.0,41.0,93,29.72,10.0,NW,3.5,-,N/A,,Clear,310,2013-02-13 23:53:00
7:53 PM,43.0,33.1,68,29.75,10.0,WNW,4.6,-,N/A,,Scattered Clouds,290,2013-02-14 00:53:00
8:53 PM,42.1,32.0,67,29.77,10.0,WNW,8.1,-,N/A,,Clear,300,2013-02-14 01:53:00
9:53 PM,39.9,30.9,70,29.80,10.0,NW,5.8,-,N/A,,Clear,310,2013-02-14 02:53:00
10:53 PM,37.9,30.0,73,29.81,10.0,NW,4.6,-,N/A,,Clear,310,2013-02-14 03:53:00
11:53 PM,39.9,28.0,63,29.83,10.0,NW,5.8,-,N/A,,Clear,320,2013-02-14 04:53:00